Regional Weather Roundup
Issued by NWS Cleveland, OH

Home | Current Version | Previous Version | Text Only | Print | Product List | Glossary Off
Versions: 1 2 3 4 5 6 7 8 9 10 11 12 13 14 15 16 17 18 19 20 21 22 23 24 25 26 27 28 29 30 31 32 33 34 35 36 37 38 39 40 41 42 43 44 45 46 47 48 49 50

000
ASUS41 KCLE 050100
RWRCLE
OHIO REGIONAL WEATHER ROUNDUP
NATIONAL WEATHER SERVICE WILMINGTON, OH
900 PM EDT SAT JUL 04 2015

NOTE: "FAIR" INDICATES FEW OR NO CLOUDS BELOW 12,000 FEET WITH NO
SIGNIFICANT WEATHER AND/OR OBSTRUCTIONS TO VISIBILITY.

OHZ001>008-015>018-024>027-034-035-043-044-050200-
   NORTHWEST OHIO

CITY           SKY/WX    TMP DP  RH WIND       PRES   REMARKS
DEFIANCE       CLEAR     74  61  63 CALM      30.00R
FINDLAY        CLEAR     74  57  55 E5        30.00R
TOLEDO EXPRESS CLEAR     68  60  75 CALM      30.00R
TOLEDO EXEC    CLEAR     71  57  61 SE5       30.01R
LIMA           CLEAR     70  63  78 CALM      30.02R
$$

OHZ009>014-019>023-028>033-038-089-050200-
   NORTHEAST OHIO

CITY           SKY/WX    TMP DP  RH WIND       PRES   REMARKS
CLE-HOPKINS    CLEAR     71  47  42 CALM      30.04R
CLE-LAKEFRONT  CLEAR     70  55  59 CALM      30.01R
CUY CO. ARPT   CLEAR     68  54  60 CALM      30.03S
LORAIN-ELYRIA  CLEAR     66  60  81 N3        30.03R
ASHTABULA      CLEAR     64  58  80 CALM      30.03S
AKRON-CANTON   CLEAR     69  51  52 N7        30.03R
WOOSTER        NOT AVBL
MANSFIELD      CLEAR     67  59  75 N5        30.03R
YOUNGSTOWN     CLEAR     66  51  58 N6        30.03R
$$

OHZ042-051>053-060>062-070>072-077>081-050200-
  SOUTHWEST OHIO

CITY           SKY/WX    TMP DP  RH WIND       PRES   REMARKS
CINC-COVINGTON MOCLDY    75  63  66 N7        30.01R
CINC-LUNKEN    MOCLDY    73  63  70 CALM      30.01R
HAMILTON       PTCLDY    69  64  84 CALM      30.02R
DAYTON         NOT AVBL
WRIGHT-PAT AFB PTCLDY    74  59  59 W2        30.02R
DAYTON GENERAL PTCLDY    73  59  61 NE3       30.02R
WILMINGTON     PTCLDY    70  59  68 NE3       30.03R
$$

OHZ036-037-039>041-045>050-054>059-063>069-073>076-082>088-050200-
  CENTRAL AND SOUTHEAST OHIO

CITY           SKY/WX    TMP DP  RH WIND       PRES   REMARKS
COLUMBUS       MOCLDY    72  56  57 N3        30.01R
OSU AIRPORT    CLEAR     71  57  61 NE3       30.02R
BOLTON FIELD   NOT AVBL
RICKENBACK AFB NOT AVBL
NEWARK         CLEAR     69  61  75 W3        30.01R
MARION         CLEAR     71  60  68 CALM      30.02R
LANCASTER      PTCLDY    66  61  84 CALM      30.02R
ZANESVILLE     CLEAR     72  60  66 CALM      30.01R
NEW PHILLY     CLEAR     68  60  75 CALM      30.02R
$$


USA.gov is the U.S. government's official web portal to all federal, state and local government web resources and services.